Weather History for Indiana, PA

Change the Weather History Date:

Tuesday, April 2, 2013

  Actual Average Record
Temperature  
Mean Temperature 30 °F -  
Max Temperature 35 °F 56 °F 82 °F (1963)
Min Temperature 24 °F 35 °F 11 °F (1964)
Degree Days  
Heating Degree Days 36    
Moisture  
Dew Point 16 °F    
Average Humidity 57    
Maximum Humidity 86    
Minimum Humidity 41    
Precipitation  
Precipitation 0.00 in - - ()
Sea Level Pressure  
Sea Level Pressure 30.07 in    
Wind  
Wind Speed 8 mph (WNW)    
Max Wind Speed 16 mph    
Max Gust Speed 30 mph    
Visibility 10 miles    
Events      
Averages and records for this station are not official NWS values.
T = Trace of Precipitation, MM = Missing Value Source: NWS Daily Summary

Daily Weather History Graph

Daily Weather History Graph

Search for Another Location

Airport:

Trip Planner

Search our weather history database for the weather conditions in past years. The results will help you decide how hot, cold, wet, or windy it might be!

Date:

Astronomy

Apr. 02, 2013 Rise Set
Actual Time 6:58 AM EDT 7:42 PM EDT
Civil Twilight 6:30 AM EDT 8:10 PM EDT
Nautical Twilight 5:57 AM EDT 8:42 PM EDT
Astronomical Twilight 5:23 AM EDT 9:16 PM EDT
Moon 1:46 AM EDT (4/2) 11:45 AM EDT (4/2)
Length of Visible Light 13h 39m
Length of Day
12h 44m
Waning Gibbous, 56% of the Moon is Illuminated
Apr 2
Waning Gibbous
Apr 3
Last Quarter
Apr 10
New
Apr 18
First Quarter
Apr 25
Full

Hourly Weather History & Observations

Time (EDT) Temp. Windchill Dew Point Humidity Pressure Visibility Wind Dir Wind Speed Gust Speed Precip Events Conditions
12:15 AM 30.2 °F 21.9 °F 15.8 °F 55% 29.98 in 10.0 mi WNW 9.2 mph - N/A   Unknown
12:35 AM 30.2 °F 24.3 °F 15.8 °F 55% 29.98 in 10.0 mi WNW 5.8 mph - N/A   Unknown
12:55 AM 28.4 °F 22.2 °F 15.8 °F 59% 29.98 in 10.0 mi WNW 5.8 mph - N/A   Unknown
1:15 AM 28.4 °F 24.6 °F 15.8 °F 59% 29.98 in 10.0 mi WNW 3.5 mph - N/A   Unknown
1:35 AM 28.4 °F 23.3 °F 15.8 °F 59% 29.99 in 10.0 mi WNW 4.6 mph - N/A   Unknown
1:55 AM 28.4 °F 23.3 °F 15.8 °F 59% 29.99 in 10.0 mi NW 4.6 mph - N/A   Unknown
2:15 AM 26.6 °F 22.6 °F 15.8 °F 64% 29.98 in 10.0 mi NW 3.5 mph - N/A   Unknown
2:35 AM 26.6 °F 20.0 °F 15.8 °F 64% 29.98 in 10.0 mi WNW 5.8 mph - N/A   Unknown
2:55 AM 26.6 °F 22.6 °F 17.6 °F 69% 29.98 in 10.0 mi WNW 3.5 mph - N/A   Unknown
3:15 AM 26.6 °F 19.1 °F 17.6 °F 69% 29.98 in 10.0 mi West 6.9 mph - N/A   Unknown
3:35 AM 26.6 °F 20.0 °F 17.6 °F 69% 29.98 in 10.0 mi WNW 5.8 mph - N/A   Unknown
3:55 AM 26.6 °F 20.0 °F 19.4 °F 74% 29.98 in 10.0 mi NW 5.8 mph - N/A   Unknown
4:15 AM 26.6 °F 20.0 °F 19.4 °F 74% 29.99 in 10.0 mi NW 5.8 mph - N/A   Unknown
4:35 AM 26.6 °F 20.0 °F 19.4 °F 74% 29.99 in 10.0 mi NW 5.8 mph - N/A   Unknown
4:55 AM 26.6 °F 20.0 °F 19.4 °F 74% 29.99 in 10.0 mi NW 5.8 mph - N/A   Unknown
5:15 AM 26.6 °F 21.2 °F 19.4 °F 74% 30.00 in 10.0 mi NW 4.6 mph - N/A   Unknown
5:35 AM 26.6 °F 19.1 °F 19.4 °F 74% 30.00 in 10.0 mi NW 6.9 mph - N/A   Unknown
5:55 AM 24.8 °F 19.1 °F 21.2 °F 86% 30.01 in 10.0 mi NW 4.6 mph - N/A   Unknown
6:15 AM 24.8 °F 20.5 °F 19.4 °F 80% 30.02 in 10.0 mi WNW 3.5 mph - N/A   Unknown
6:35 AM 24.8 °F 16.1 °F 17.6 °F 74% 30.02 in 10.0 mi WNW 8.1 mph - N/A   Unknown
6:55 AM 24.8 °F 19.1 °F 17.6 °F 74% 30.03 in 10.0 mi WNW 4.6 mph - N/A   Unknown
7:15 AM 24.8 °F 19.1 °F 17.6 °F 74% 30.04 in 10.0 mi West 4.6 mph - N/A   Unknown
7:35 AM 24.8 °F 19.1 °F 17.6 °F 74% 30.05 in 10.0 mi WNW 4.6 mph - N/A   Unknown
7:55 AM 26.6 °F 17.5 °F 19.4 °F 74% 30.07 in 10.0 mi WNW 9.2 mph - N/A   Unknown
8:15 AM 26.6 °F 20.0 °F 19.4 °F 74% 30.08 in 10.0 mi WNW 5.8 mph - N/A   Unknown
8:35 AM 26.6 °F 16.8 °F 19.4 °F 74% 30.09 in 10.0 mi WNW 10.4 mph - N/A   Unknown
8:55 AM 26.6 °F 16.8 °F 17.6 °F 69% 30.09 in 10.0 mi WNW 10.4 mph 18.4 mph N/A   Unknown
9:15 AM 28.4 °F 18.5 °F 15.8 °F 59% 30.10 in 10.0 mi NW 11.5 mph 19.6 mph N/A   Unknown
9:35 AM 28.4 °F 19.7 °F 14.0 °F 55% 30.10 in 10.0 mi NW 9.2 mph - N/A   Unknown
9:55 AM 28.4 °F 18.0 °F 12.2 °F 51% 30.10 in 10.0 mi NW 12.7 mph 20.7 mph N/A   Unknown
10:35 AM 28.4 °F 19.1 °F 14.0 °F 55% 30.10 in 10.0 mi WNW 10.4 mph 18.4 mph N/A   Unknown
10:55 AM 30.2 °F 18.9 °F 15.8 °F 55% 30.11 in 10.0 mi WNW 16.1 mph 19.6 mph N/A   Unknown
11:15 AM 30.2 °F 20.2 °F 14.0 °F 51% 30.11 in 10.0 mi WNW 12.7 mph 20.7 mph N/A   Unknown
11:35 AM 30.2 °F 20.2 °F 15.8 °F 55% 30.11 in 10.0 mi West 12.7 mph 19.6 mph N/A   Unknown
11:55 AM 30.2 °F 19.8 °F 15.8 °F 55% 30.11 in 10.0 mi WNW 13.8 mph 19.6 mph N/A   Unknown
12:15 PM 30.2 °F 19.3 °F 15.8 °F 55% 30.11 in 10.0 mi WNW 15.0 mph 21.9 mph N/A   Unknown
12:35 PM 32.0 °F 23.6 °F 15.8 °F 51% 30.11 in 10.0 mi WNW 10.4 mph 25.3 mph N/A   Unknown
12:55 PM 32.0 °F 23.6 °F 15.8 °F 51% 30.11 in 10.0 mi WNW 10.4 mph 21.9 mph N/A   Unknown
1:15 PM 33.8 °F 24.3 °F 15.8 °F 48% 30.10 in 10.0 mi WNW 13.8 mph 21.9 mph N/A   Unknown
1:35 PM 33.8 °F 24.8 °F 15.8 °F 48% 30.10 in 10.0 mi WNW 12.7 mph 20.7 mph N/A   Unknown
1:55 PM 33.8 °F 24.8 °F 15.8 °F 48% 30.09 in 10.0 mi WNW 12.7 mph 24.2 mph N/A   Unknown
2:15 PM 33.8 °F 23.5 °F 15.8 °F 48% 30.09 in 10.0 mi West 16.1 mph 25.3 mph N/A   Unknown
2:35 PM 33.8 °F 23.9 °F 17.6 °F 52% 30.09 in 10.0 mi WNW 15.0 mph 29.9 mph N/A   Unknown
2:55 PM 33.8 °F 25.3 °F 15.8 °F 48% 30.09 in 10.0 mi WNW 11.5 mph 21.9 mph N/A   Unknown
3:15 PM 33.8 °F 25.8 °F 15.8 °F 48% 30.08 in 10.0 mi WNW 10.4 mph 24.2 mph N/A   Unknown
3:35 PM 35.6 °F 26.2 °F 15.8 °F 44% 30.07 in 10.0 mi West 15.0 mph 24.2 mph N/A   Unknown
3:55 PM 35.6 °F 26.6 °F 15.8 °F 44% 30.07 in 10.0 mi WNW 13.8 mph 24.2 mph N/A   Unknown
4:15 PM 35.6 °F 28.0 °F 15.8 °F 44% 30.07 in 10.0 mi WNW 10.4 mph 25.3 mph N/A   Unknown
4:35 PM 35.6 °F 25.9 °F 15.8 °F 44% 30.07 in 10.0 mi WNW 16.1 mph 25.3 mph N/A   Unknown
4:55 PM 35.6 °F 28.6 °F 15.8 °F 44% 30.08 in 10.0 mi WNW 9.2 mph - N/A   Unknown
5:15 PM 35.6 °F 27.1 °F 15.8 °F 44% 30.08 in 10.0 mi WNW 12.7 mph 23.0 mph N/A   Unknown
5:35 PM 35.6 °F 28.0 °F 14.0 °F 41% 30.09 in 10.0 mi WNW 10.4 mph 24.2 mph N/A   Unknown
5:55 PM 35.6 °F 26.6 °F 15.8 °F 44% 30.09 in 10.0 mi West 13.8 mph 19.6 mph N/A   Unknown
6:15 PM 33.8 °F 25.8 °F 15.8 °F 48% 30.10 in 10.0 mi NW 10.4 mph - N/A   Unknown
6:35 PM 33.8 °F 24.8 °F 14.0 °F 44% 30.10 in 10.0 mi WNW 12.7 mph 18.4 mph N/A   Unknown
6:55 PM 33.8 °F 26.4 °F 14.0 °F 44% 30.11 in 10.0 mi WNW 9.2 mph 19.6 mph N/A   Unknown
7:15 PM 33.8 °F 27.0 °F 14.0 °F 44% 30.11 in 10.0 mi WNW 8.1 mph 19.6 mph N/A   Unknown
7:35 PM 33.8 °F 25.8 °F 12.2 °F 41% 30.12 in 10.0 mi WNW 10.4 mph 19.6 mph N/A   Unknown
7:55 PM 33.8 °F 27.7 °F 12.2 °F 41% 30.12 in 10.0 mi WNW 6.9 mph - N/A   Unknown
8:15 PM 33.8 °F 27.7 °F 14.0 °F 44% 30.13 in 10.0 mi WNW 6.9 mph - N/A   Unknown
8:35 PM 33.8 °F 28.6 °F 12.2 °F 41% 30.13 in 10.0 mi WNW 5.8 mph - N/A   Unknown
8:55 PM 32.0 °F 24.8 °F 12.2 °F 44% 30.14 in 10.0 mi NNW 8.1 mph - N/A   Unknown
9:15 PM 30.2 °F 25.4 °F 10.4 °F 44% 30.15 in 10.0 mi NW 4.6 mph - N/A   Unknown
9:35 PM 30.2 °F - 10.4 °F 44% 30.15 in 10.0 mi Calm Calm - N/A   Unknown
9:55 PM 28.4 °F - 12.2 °F 51% 30.16 in 10.0 mi Calm Calm - N/A   Unknown
10:15 PM 28.4 °F - 12.2 °F 51% 30.16 in 10.0 mi Calm Calm - N/A   Unknown
10:35 PM 28.4 °F - 14.0 °F 55% 30.15 in 10.0 mi Calm Calm - N/A   Unknown
10:55 PM 26.6 °F - 15.8 °F 64% 30.14 in 10.0 mi Calm Calm - N/A   Unknown
11:15 PM 26.6 °F - 15.8 °F 64% 30.14 in 10.0 mi Calm Calm - N/A   Unknown
11:35 PM 26.6 °F - 15.8 °F 64% 30.14 in 10.0 mi Calm Calm - N/A   Unknown
11:55 PM 26.6 °F - 15.8 °F 64% 30.14 in 10.0 mi Calm Calm - N/A   Unknown